FW4781 Weather Reports


time (UTC)temp
F
wind
direction
speed
knots
gust
knots
rain 1hr
in
rain 24hr
in
rain mn
in
humidity
%
barometer
mb
20260503224104 76 101 4.3 8.7 0.00 0.00 0.00 43 1009.7
20260503222104 76 319 2.6 11.3 0.00 0.00 0.00 40 1009.9
20260503221104 76 90 2.6 8.7 0.00 0.00 0.00 43 1010.1
20260503220104 76 296 1.7 10.4 0.00 0.00 0.00 45 1010.2
20260503215104 75 66 5.2 11.3 0.00 0.00 0.00 42 1010.2
20260503213103 75 48 4.3 14.8 0.00 0.00 0.00 42 1010.5
20260503212104 75 69 1.7 11.3 0.00 0.00 0.00 44 1010.5
20260503211104 75 60 1.7 8.7 0.00 0.00 0.00 44 1010.6
20260503210104 74 46 0.9 11.3 0.00 0.00 0.00 47 1010.7
20260503205103 74 24 6.1 11.3 0.00 0.00 0.00 47 1010.7
20260503204105 73 337 7.8 13.0 0.00 0.00 0.00 50 1010.9
20260503203104 73 76 5.2 10.4 0.00 0.00 0.00 52 1011.0
20260503202104 73 75 6.1 10.4 0.00 0.00 0.00 51 1011.0
20260503201103 72 66 5.2 11.3 0.00 0.00 0.00 54 1011.2
20260503200104 72 59 5.2 10.4 0.00 0.00 0.00 53 1011.5
20260503195104 72 69 5.2 10.4 0.00 0.00 0.00 54 1011.5
20260503194104 71 48 2.6 8.7 0.00 0.00 0.00 56 1011.7
20260503193104 71 74 3.5 10.4 0.00 0.00 0.00 55 1011.8
20260503192104 71 63 2.6 11.3 0.00 0.00 0.00 58 1011.8
20260503191107 71 74 5.2 12.2 0.00 0.00 0.00 56 1012.0
20260503190104 71 63 4.3 10.4 0.00 0.00 0.00 55 1012.1
20260503185104 71 86 3.5 10.4 0.00 0.00 0.00 56 1012.1
20260503184104 71 134 4.3 11.3 0.00 0.00 0.00 54 1012.2
20260503183104 71 56 5.2 11.3 0.00 0.00 0.00 57 1012.2
20260503182104 70 21 5.2 13.0 0.00 0.00 0.00 59 1012.2
20260503181104 70 63 6.1 8.7 0.00 0.00 0.00 58 1012.3
20260503174103 69 58 7.8 12.2 0.00 0.00 0.00 59 1012.6
20260503173104 69 20 4.3 11.3 0.00 0.00 0.00 59 1012.7
20260503172104 68 88 4.3 11.3 0.00 0.00 0.00 62 1012.7
20260503170105 68 64 5.2 14.8 0.00 0.00 0.00 62 1012.7
20260503150103 63 78 1.7 5.2 0.00 0.00 0.00 70 1012.8
20260503140104 60 111 0.9 2.6 0.00 0.00 0.00 72 1012.4
20260503131104 57 227 0.0 2.6 0.00 0.00 0.00 76 1012.2
20260503130104 57 227 0.0 1.7 0.00 0.00 0.00 77 1012.2
20260503110103 52 229 0.0 0.0 0.00 0.00 0.00 87 1012.7
20260503100104 53 229 0.0 0.0 0.00 0.00 0.00 85 1013.0
20260503090104 53 229 0.0 0.0 0.00 0.00 0.00 85 1012.9
20260503080106 55 229 0.0 0.0 0.00 0.00 0.00 82 1012.7
20260503072104 60 227 0.0 2.6 0.00 0.00 0.00 67 1012.6
20260503071104 59 225 0.0 2.6 0.00 0.00 0.00 69 1012.5
20260503070104 58 208 0.0 1.7 0.00 0.00 0.00 73 1012.4
20260503060103 58 208 0.0 0.0 0.00 0.00 0.00 73 1012.5
20260503055104 59 208 0.0 0.0 0.00 0.00 0.00 70 1012.5
20260503054104 60 208 0.0 0.0 0.00 0.00 0.00 68 1012.4
20260503053104 60 208 0.0 0.9 0.00 0.00 0.00 68 1012.4
20260503052104 61 208 0.0 1.7 0.00 0.00 0.00 68 1012.4
20260503051103 60 208 0.0 2.6 0.00 0.00 0.00 69 1012.3
20260503045104 60 207 0.0 0.0 0.00 0.00 0.00 68 1012.2
20260503043104 61 207 0.0 0.0 0.00 0.00 0.00 68 1012.0
20260503042104 62 207 0.0 0.0 0.00 0.00 0.00 67 1012.0
20260503041104 62 207 0.0 0.0 0.00 0.00 0.00 64 1011.7
20260503040105 63 207 0.0 0.0 0.00 0.00 0.00 64 1011.7
20260503035103 63 207 0.0 0.0 0.00 0.00 0.00 63 1011.7
20260503033103 64 207 0.0 0.9 0.00 0.00 0.00 60 1011.3
20260503032103 65 213 0.0 0.0 0.00 0.00 0.00 60 1011.3
20260503031106 66 213 0.0 2.6 0.00 0.00 0.00 57 1011.2
20260503030103 67 220 0.0 2.6 0.00 0.00 0.00 55 1011.2
20260503025105 67 68 0.0 2.6 0.00 0.00 0.00 55 1011.2
20260503024104 68 88 0.0 1.7 0.00 0.00 0.00 54 1011.2
20260503022104 69 38 0.9 6.1 0.00 0.00 0.00 53 1011.2
20260503020104 69 81 1.7 6.1 0.00 0.00 0.00 52 1011.3
20260503015104 69 62 1.7 7.8 0.00 0.00 0.00 52 1011.3
20260503014103 70 51 1.7 7.8 0.00 0.00 0.00 50 1011.3
20260503013105 70 80 2.6 10.4 0.00 0.00 0.00 50 1011.4
20260503011104 70 78 1.7 8.7 0.00 0.00 0.00 51 1011.3
20260503005104 71 60 1.7 7.8 0.00 0.00 0.00 51 1011.5
20260503004104 71 73 2.6 8.7 0.00 0.00 0.00 50 1011.6
20260503003103 72 95 2.6 11.3 0.00 0.00 0.00 50 1011.6
20260503002104 72 42 4.3 12.2 0.00 0.00 0.00 50 1011.6
20260502235103 71 72 5.2 10.4 0.00 0.00 0.00 52 1011.7
20260502234104 71 65 2.6 11.3 0.00 0.00 0.00 52 1011.9
20260502232103 71 63 3.5 11.3 0.00 0.00 0.00 54 1012.2
20260502231104 71 23 2.6 10.4 0.00 0.00 0.00 55 1012.4
20260502230104 70 95 2.6 11.3 0.00 0.00 0.00 55 1012.8